Date,TemperatureHighF,TemperatureAvgF,TemperatureLowF,DewpointHighF,DewpointAvgF,DewpointLowF,HumidityHigh,HumidityAvg,HumidityLow,PressureMaxIn,PressureMinIn,WindSpeedMaxMPH,WindSpeedAvgMPH,GustSpeedMaxMPH,PrecipitationSumIn
2013-1-1,32.3,26.4,8.5,26.0,18.6,3.0,80,72,62,29.95,29.78,12,3,0,0.00
2013-1-2,29.0,15.1,0.4,15.0,7.8,-3.0,89,74,55,30.15,29.93,9,2,0,0.00
2013-1-3,22.7,11.3,-3.7,13.0,2.9,-9.0,81,70,52,30.18,30.01,10,1,0,0.00
2013-1-4,35.7,28.0,18.7,24.0,19.9,13.0,83,72,59,30.02,29.86,13,2,0,0.01
2013-1-5,36.8,27.9,16.8,25.0,19.7,13.0,87,72,59,30.24,29.91,15,2,0,0.01
2013-1-6,40.3,30.2,23.0,28.0,24.3,19.0,90,79,61,30.18,29.92,10,1,0,0.09
2013-1-7,32.5,25.8,16.1,28.0,20.3,13.0,93,80,65,30.36,29.99,14,2,0,0.01
2013-1-8,42.5,29.9,17.2,28.0,23.2,14.0,90,77,56,30.37,30.29,9,1,0,0.04
2013-1-9,40.9,30.9,18.5,33.0,26.2,16.0,93,83,67,30.35,30.06,9,1,0,0.01
2013-1-10,40.0,35.2,26.0,28.0,24.0,21.0,83,64,54,30.52,30.15,16,5,0,0.00
2013-1-11,38.1,30.6,21.4,37.0,26.7,18.0,95,85,70,30.50,30.12,10,2,0,0.24
2013-1-12,42.4,38.4,35.4,41.0,37.2,34.0,96,95,94,30.14,30.07,2,0,0,0.02
2013-1-13,44.5,40.9,36.2,44.0,39.9,35.0,96,96,95,30.11,29.95,5,1,0,0.01
2013-1-14,47.6,41.0,31.3,47.0,37.1,24.0,97,86,71,30.27,29.83,14,4,0,0.06
2013-1-15,33.0,30.3,27.1,25.0,23.0,21.0,82,74,68,30.32,30.20,10,2,0,0.00
2013-1-16,30.9,29.1,26.2,29.0,26.7,21.0,94,90,72,30.20,29.81,3,0,0,0.01
2013-1-17,37.3,28.5,20.8,32.0,23.8,11.0,94,83,65,30.10,29.85,12,2,0,0.27
2013-1-18,23.5,17.7,11.0,11.0,6.4,0.0,79,62,46,30.41,30.02,10,3,0,0.00
2013-1-19,42.5,31.0,20.7,28.0,20.0,10.0,81,64,50,30.33,29.85,10,2,0,0.07
2013-1-20,45.2,35.8,22.7,32.0,21.8,9.0,73,58,33,29.96,29.60,13,3,0,0.01
2013-1-21,24.1,19.9,13.3,18.0,12.2,9.0,90,73,56,30.03,29.76,6,1,0,0.00
2013-1-22,18.9,13.9,6.7,16.0,1.0,-7.0,90,58,42,30.11,29.75,12,3,0,0.00
2013-1-23,13.5,6.3,1.0,-1.0,-5.2,-8.0,79,60,45,30.17,30.08,12,2,0,0.00
2013-1-24,16.2,7.1,-1.4,1.0,-3.9,-8.0,77,62,42,30.32,30.12,13,4,0,0.00
2013-1-25,16.5,11.2,2.9,10.0,2.0,-3.0,83,67,49,30.37,30.04,7,2,0,0.00
2013-1-26,19.7,11.9,5.9,8.0,4.3,2.0,89,73,51,30.32,30.02,13,3,0,0.00
2013-1-27,27.2,16.7,8.5,9.0,5.2,2.0,84,62,36,30.48,30.32,11,2,0,0.00
2013-1-28,31.1,23.6,14.3,30.0,18.2,4.0,94,80,53,30.46,29.95,9,1,0,0.00
2013-1-29,42.9,35.0,31.2,41.0,33.1,30.0,95,93,84,30.11,29.96,10,1,0,0.21
2013-1-30,55.6,46.9,33.9,54.0,45.7,32.0,97,95,94,30.05,29.33,12,2,0,0.22
2013-1-31,57.3,41.0,24.0,55.0,31.7,13.0,96,71,46,29.62,28.94,19,6,0,0.91
2013-2-1,25.9,22.2,18.4,17.0,10.7,6.0,84,62,49,30.14,29.62,15,4,0,0.00
2013-2-2,25.3,18.9,12.3,14.0,9.5,6.0,86,68,47,30.22,30.02,8,2,0,0.00
2013-2-3,26.7,19.4,11.2,15.0,12.9,8.0,90,77,60,30.01,29.75,6,0,0,0.02
2013-2-4,25.0,20.2,15.8,16.0,10.3,6.0,88,67,48,29.92,29.75,12,2,0,0.00
2013-2-5,28.1,22.7,18.0,21.0,16.2,10.0,89,77,65,29.96,29.87,4,0,0,0.00
2013-2-6,33.1,26.1,18.8,25.0,16.9,2.0,92,70,41,30.31,29.87,11,2,0,0.02
2013-2-7,29.1,21.2,11.7,15.0,7.1,2.0,76,55,39,30.48,30.30,7,2,0,0.00
2013-2-8,28.2,24.9,20.5,26.0,20.3,12.0,91,83,60,30.34,29.68,13,4,0,0.00
2013-2-9,21.0,17.4,10.0,19.0,12.7,3.0,91,82,71,30.30,29.73,20,9,0,0.00
2013-2-10,32.9,16.3,8.1,13.0,4.4,-1.0,78,61,34,30.47,30.30,13,2,0,0.02
2013-2-11,40.5,34.0,23.3,39.0,30.9,10.0,95,88,55,30.31,29.65,10,2,0,0.20
2013-2-12,40.5,34.7,31.4,32.0,27.5,23.0,95,75,60,29.90,29.65,8,2,0,0.00
2013-2-13,41.0,31.9,19.9,27.0,22.7,16.0,89,70,49,29.88,29.67,7,1,0,0.00
2013-2-14,41.5,29.3,17.2,27.0,22.4,14.0,91,77,49,29.95,29.68,6,1,0,0.03
2013-2-15,47.8,36.5,25.6,31.0,27.3,22.0,87,71,51,29.96,29.87,10,1,0,0.00
2013-2-16,31.0,26.7,22.2,27.0,19.3,12.0,90,74,63,29.94,29.72,11,5,0,0.00
2013-2-17,23.3,17.6,11.2,11.0,4.5,1.0,66,57,42,29.88,29.59,20,8,0,0.00
2013-2-18,28.8,17.5,9.9,11.0,5.0,1.0,78,59,40,30.18,29.88,16,3,0,0.00
2013-2-19,39.7,31.9,19.3,35.0,23.9,10.0,94,73,54,30.17,29.60,9,2,0,0.21
2013-2-20,33.5,25.4,20.2,32.0,14.9,8.0,93,66,50,29.87,29.60,11,4,0,0.01
2013-2-21,25.3,20.5,16.6,14.0,11.7,10.0,78,69,61,30.31,29.86,16,6,0,0.00
2013-2-22,34.4,26.1,17.5,25.0,18.9,13.0,85,75,60,30.39,30.25,11,2,0,0.00
2013-2-23,34.6,32.0,29.6,33.0,29.4,25.0,93,90,81,30.25,29.81,8,3,0,0.03
2013-2-24,35.9,32.5,28.6,32.0,29.2,23.0,94,88,69,29.92,29.71,15,4,0,0.07
2013-2-25,38.4,31.8,26.4,28.0,25.7,22.0,88,78,63,30.22,29.92,10,3,0,0.00
2013-2-26,39.7,32.3,23.7,29.0,25.3,21.0,92,76,60,30.28,29.99,10,2,0,0.00
2013-2-27,40.7,36.5,31.3,38.0,34.2,27.0,94,91,82,29.96,29.49,15,3,0,0.32
2013-2-28,42.2,35.9,32.9,37.0,33.7,31.0,95,92,78,29.58,29.51,5,1,0,0.04
2013-3-1,37.4,33.2,29.8,31.0,28.9,24.0,92,84,71,29.73,29.55,11,4,0,0.00
2013-3-2,31.8,28.5,23.3,25.0,23.3,20.0,87,80,73,29.73,29.66,10,4,0,0.00
2013-3-3,27.1,24.0,21.1,24.0,19.0,15.0,88,81,75,29.72,29.64,12,4,0,0.00
2013-3-4,32.4,26.9,22.7,23.0,19.9,17.0,82,75,66,29.84,29.70,15,6,0,0.01
2013-3-5,38.5,30.6,25.6,27.0,24.2,21.0,84,77,64,30.02,29.85,11,4,0,0.00
2013-3-6,38.1,34.3,31.9,32.0,28.4,26.0,88,79,72,30.01,29.93,15,3,0,0.00
2013-3-7,32.5,30.1,27.2,28.0,26.4,24.0,93,86,76,30.06,29.97,14,7,0,0.01
2013-3-8,34.0,29.0,26.2,29.0,25.9,23.0,93,88,74,30.20,29.97,25,11,0,0.00
2013-3-9,44.0,33.0,26.1,28.0,23.8,21.0,83,70,51,30.30,30.19,17,6,0,0.00
2013-3-10,49.4,36.0,20.6,32.0,26.1,18.0,91,69,46,30.35,30.23,9,1,0,0.00
2013-3-11,48.3,40.5,31.5,42.0,35.8,29.0,93,83,69,30.26,30.05,9,2,0,0.00
2013-3-12,51.0,46.3,36.4,50.0,44.5,34.0,95,93,89,30.04,29.62,19,5,0,1.18
2013-3-13,42.1,36.3,31.0,33.0,27.9,24.0,88,72,54,29.81,29.73,10,2,0,0.00
2013-3-14,31.6,25.5,20.9,25.0,15.7,10.0,88,67,55,29.87,29.77,14,4,0,0.01
2013-3-15,34.8,27.7,18.1,29.0,18.7,11.0,84,70,54,29.89,29.68,11,3,0,0.00
2013-3-16,32.0,28.7,23.1,27.0,19.4,14.0,87,69,51,29.87,29.73,10,2,0,0.00
2013-3-17,31.5,25.4,19.2,19.0,13.3,10.0,76,61,43,30.30,29.87,15,4,0,0.00
2013-3-18,32.4,24.6,14.1,24.0,11.3,5.0,92,59,39,30.39,30.05,9,2,0,0.00
2013-3-19,35.0,30.0,25.7,33.0,28.1,24.0,95,92,90,30.04,29.66,12,4,0,0.25
2013-3-20,37.8,28.1,20.1,27.0,20.3,15.0,94,75,46,29.79,29.73,10,2,0,0.17
2013-3-21,34.1,25.0,16.2,19.0,14.5,12.0,91,67,44,29.79,29.60,9,2,0,0.03
2013-3-22,35.5,26.6,14.7,22.0,17.4,10.0,85,69,55,29.80,29.66,15,2,0,0.00
2013-3-23,38.8,32.6,28.1,25.0,20.8,18.0,76,63,47,29.85,29.74,13,4,0,0.00
2013-3-24,38.3,32.3,25.8,26.0,22.5,19.0,80,67,58,29.88,29.71,11,3,0,0.00
2013-3-25,41.4,35.2,30.3,28.0,24.6,22.0,76,66,55,29.71,29.45,7,2,0,0.00
2013-3-26,42.8,34.5,25.7,31.0,26.6,22.0,85,74,51,29.81,29.56,11,2,0,0.00
2013-3-27,46.1,35.2,22.2,30.0,24.2,19.0,91,66,43,29.91,29.80,10,2,0,0.00
2013-3-28,42.4,37.0,32.5,34.0,30.5,27.0,87,77,68,30.06,29.90,9,3,0,0.00
2013-3-29,47.5,40.0,33.9,33.0,29.4,28.0,78,67,52,30.09,30.00,10,3,0,0.01
2013-3-30,51.7,39.1,26.2,32.0,26.8,23.0,92,65,35,30.11,30.02,8,2,0,0.00
2013-3-31,52.6,40.8,26.0,38.0,29.0,22.0,90,65,40,30.09,29.66,11,2,0,0.15
2013-4-1,53.2,40.8,28.8,44.0,34.1,15.0,95,78,48,29.82,29.55,11,2,0,0.01
2013-4-2,37.0,30.4,25.4,19.0,13.9,11.0,73,51,37,29.99,29.82,15,4,0,0.00
2013-4-3,39.1,31.0,26.4,19.0,15.7,13.0,65,54,40,30.24,29.98,12,4,0,0.00
2013-4-4,50.5,36.7,25.0,26.0,20.2,14.0,73,53,32,30.33,30.00,15,3,0,0.00
2013-4-5,54.0,42.0,33.8,29.0,24.6,21.0,67,52,33,29.99,29.69,13,4,0,0.00
2013-4-6,45.0,34.4,26.2,24.0,16.0,10.0,72,49,28,30.26,29.93,15,4,0,0.00
2013-4-7,53.8,43.9,29.3,41.0,30.0,17.0,81,60,39,30.25,29.93,16,4,0,0.00
2013-4-8,63.2,49.8,37.3,43.0,38.3,35.0,93,67,44,30.05,29.93,14,3,0,0.00
2013-4-9,65.9,57.3,44.8,51.0,45.2,41.0,94,65,47,29.95,29.84,11,3,0,0.01
2013-4-10,61.1,52.9,44.6,53.0,47.8,41.0,94,83,65,29.94,29.76,8,1,0,0.49
2013-4-11,51.8,42.0,32.5,50.0,37.1,28.0,95,83,65,30.05,29.78,13,6,0,0.01
2013-4-12,37.8,36.1,34.4,35.0,33.1,32.0,92,89,82,30.05,29.72,19,4,0,0.39
2013-4-13,49.8,41.7,34.3,38.0,34.7,32.0,94,77,59,29.91,29.75,6,1,0,0.04
2013-4-14,45.9,39.6,33.2,35.0,29.5,25.0,92,69,50,30.19,29.89,10,2,0,0.00
2013-4-15,57.8,43.6,30.8,37.0,30.6,25.0,84,62,45,30.34,30.19,8,1,0,0.00
2013-4-16,62.1,50.8,37.8,52.0,43.5,30.0,88,76,64,30.33,30.06,17,3,0,0.00
2013-4-17,59.1,49.7,42.0,52.0,38.8,33.0,93,68,42,30.26,30.07,14,4,0,0.07
2013-4-18,57.5,49.2,41.5,46.0,36.6,30.0,90,63,46,30.31,30.07,11,3,0,0.00
2013-4-19,69.6,60.0,49.2,62.0,56.6,47.0,95,88,76,30.07,29.57,18,4,0,0.55
2013-4-20,59.0,45.0,33.9,57.0,34.1,23.0,93,69,41,30.25,29.60,15,5,0,0.42
2013-4-21,47.1,36.4,28.5,29.0,23.0,18.0,76,60,41,30.60,30.26,15,5,0,0.00
2013-4-22,54.5,42.1,30.3,34.0,28.3,23.0,88,61,38,30.66,30.47,11,2,0,0.00
2013-4-23,46.6,39.1,31.9,39.0,33.3,27.0,88,80,73,30.49,30.10,6,2,0,0.00
2013-4-24,71.6,52.5,35.3,51.0,43.5,32.0,94,74,47,30.09,29.75,12,2,0,0.00
2013-4-25,57.2,48.1,37.3,51.0,34.7,29.0,90,62,37,30.22,29.77,11,3,0,0.00
2013-4-26,57.9,45.7,32.8,39.0,32.2,27.0,82,61,40,30.40,30.22,14,3,0,0.00
2013-4-27,63.1,48.0,30.3,40.0,31.9,24.0,87,58,28,30.40,30.24,7,2,0,0.00
2013-4-28,69.6,53.2,35.8,45.0,36.8,31.0,86,57,34,30.27,30.13,7,1,0,0.00
2013-4-29,55.5,51.5,48.1,45.0,40.6,31.0,81,67,47,30.19,30.15,7,1,0,0.00
2013-4-30,67.3,55.5,43.8,42.0,36.9,31.0,83,53,31,30.28,30.17,7,1,0,0.00
2013-5-1,70.5,54.1,35.1,43.0,35.4,30.0,86,54,28,30.43,30.29,6,1,0,0.00
2013-5-2,77.1,58.8,38.3,49.0,42.7,36.0,95,60,31,30.41,30.24,10,1,0,0.00
2013-5-3,66.6,55.6,45.3,43.0,37.6,33.0,77,53,34,30.41,30.27,11,2,0,0.00
2013-5-4,71.2,55.0,38.1,46.0,41.3,36.0,94,64,32,30.32,30.15,6,1,0,0.00
2013-5-5,70.0,50.8,33.0,43.0,36.7,30.0,93,64,27,30.25,30.13,6,1,0,0.00
2013-5-6,71.5,52.5,33.8,51.0,43.2,32.0,94,73,44,30.23,30.07,5,1,0,0.00
2013-5-7,74.8,59.9,42.3,56.0,49.7,40.0,96,72,41,30.13,30.02,7,1,0,0.00
2013-5-8,65.5,59.5,54.7,60.0,56.2,52.0,93,88,76,30.08,29.93,7,1,0,0.00
2013-5-9,60.4,54.9,48.6,57.0,52.5,47.0,95,91,85,29.97,29.84,4,0,0,0.57
2013-5-10,74.5,60.7,45.3,59.0,52.4,44.0,96,77,48,29.95,29.84,6,1,0,0.02
2013-5-11,66.2,61.5,58.5,61.0,58.5,55.0,95,90,75,29.84,29.63,9,1,0,0.34
2013-5-12,60.1,52.7,41.1,59.0,44.4,31.0,95,75,43,29.83,29.60,15,2,0,0.09
2013-5-13,48.7,41.7,33.2,35.0,31.1,29.0,88,68,50,30.05,29.83,7,1,0,0.00
2013-5-14,56.7,42.7,28.8,37.0,30.8,26.0,93,66,38,30.08,29.98,12,2,0,0.00
2013-5-15,62.9,47.6,34.0,53.0,40.6,30.0,91,77,58,30.03,29.64,12,1,0,0.04
2013-5-16,78.7,62.8,44.1,54.0,44.7,39.0,96,58,27,29.78,29.66,12,2,0,0.01
2013-5-17,60.5,52.3,47.0,41.0,39.3,37.0,75,63,42,29.99,29.78,10,4,0,0.00
2013-5-21,86.6,72.1,58.5,72.0,64.8,57.0,96,79,56,29.92,29.76,10,1,0,0.00
2013-5-22,75.6,66.7,58.2,70.0,63.8,56.0,95,90,80,29.84,29.77,5,1,0,0.39
2013-5-23,71.9,66.2,61.5,67.0,64.2,58.0,96,93,85,29.82,29.69,9,1,0,1.67
2013-5-24,63.5,51.5,40.8,62.0,50.0,39.0,96,94,89,29.89,29.59,19,5,0,0.42
2013-5-25,43.1,41.4,39.8,41.0,39.4,38.0,94,92,85,29.90,29.82,17,7,0,0.69
2013-5-26,54.1,47.0,38.0,44.0,39.2,35.0,90,75,60,30.13,29.83,15,5,0,0.00
2013-5-27,71.5,52.7,34.4,49.0,40.3,32.0,95,67,34,30.20,30.08,7,1,0,0.00
2013-5-28,67.3,54.2,41.3,54.0,46.6,38.0,95,78,44,30.17,30.09,5,1,0,0.04
2013-5-29,78.9,64.8,54.8,70.0,61.1,53.0,96,88,69,30.10,29.93,11,1,0,1.65
2013-5-30,87.1,72.7,58.9,73.0,65.6,58.0,97,80,54,30.07,29.99,5,0,0,0.01
2013-5-31,89.3,75.5,61.0,71.0,64.9,59.0,96,73,46,30.07,29.92,5,1,0,0.00
2013-6-1,87.4,74.9,59.7,71.0,65.9,57.0,95,75,53,29.95,29.83,8,1,0,0.00
2013-6-2,84.0,74.5,68.5,72.0,67.7,65.0,91,79,66,29.84,29.68,10,1,0,0.15
2013-6-3,72.0,65.5,53.1,66.0,59.9,42.0,95,82,67,29.86,29.73,7,2,0,0.56
2013-6-4,68.4,57.9,46.3,50.0,44.5,40.0,81,62,46,30.08,29.86,10,3,0,0.00
2013-6-5,71.3,59.9,46.6,54.0,46.4,41.0,88,63,41,30.17,30.06,4,0,0,0.00
2013-6-6,67.2,57.4,48.4,55.0,50.8,45.0,93,80,64,30.11,29.98,11,2,0,0.17
2013-6-7,57.0,55.3,53.5,56.0,53.6,52.0,95,93,92,29.99,29.69,10,3,0,1.54
2013-6-8,71.6,60.0,52.1,63.0,55.9,51.0,96,86,71,30.01,29.62,10,2,0,0.40
2013-6-9,76.2,64.0,50.5,63.0,56.5,48.0,96,78,54,30.13,30.01,5,0,0,0.00
2013-6-10,66.3,60.4,54.8,61.0,57.0,52.0,95,89,78,30.13,29.82,10,2,0,1.30
2013-6-11,73.2,63.4,57.2,66.0,59.9,55.0,96,89,76,29.81,29.54,9,2,0,0.24
2013-6-12,69.3,61.5,52.6,56.0,53.1,50.0,89,74,57,29.81,29.61,15,3,0,0.00
2013-6-13,55.3,53.2,50.2,53.0,51.3,48.0,95,93,89,29.79,29.56,10,1,0,2.07
2013-6-14,70.5,58.0,49.2,58.0,52.5,47.0,94,83,57,29.83,29.58,9,2,0,0.44
2013-6-15,75.8,62.1,47.7,59.0,51.9,46.0,95,72,42,29.95,29.83,6,1,0,0.01
2013-6-16,72.8,62.0,48.2,62.0,54.8,46.0,95,78,58,29.93,29.70,7,1,0,0.00
2013-6-17,82.6,65.6,54.1,66.0,59.0,52.0,96,81,49,29.88,29.77,9,1,0,0.04
2013-6-18,75.5,62.6,56.7,67.0,59.1,55.0,96,88,69,29.88,29.81,13,2,0,0.05
2013-6-19,69.3,59.3,49.7,55.0,50.5,44.0,95,75,44,30.14,29.87,10,2,0,0.00
2013-6-20,76.3,62.7,46.1,58.0,51.6,44.0,94,70,48,30.23,30.13,6,1,0,0.00
2013-6-21,79.5,67.5,54.2,67.0,59.4,52.0,93,76,59,30.23,30.16,6,1,0,0.00
2013-6-22,80.4,69.8,56.6,65.0,59.6,54.0,92,72,54,30.19,30.05,7,1,0,0.00
2013-6-23,87.0,74.8,61.2,72.0,65.9,58.0,91,75,52,30.11,29.98,10,1,0,0.00
2013-6-24,88.8,74.4,62.9,73.0,67.9,61.0,95,81,58,30.00,29.89,4,1,0,0.14
2013-6-25,85.8,73.2,61.9,73.0,67.3,60.0,96,83,61,29.95,29.73,7,1,0,0.16
2013-6-26,78.0,72.0,64.8,70.0,68.0,63.0,96,87,72,29.79,29.71,3,0,0,0.00
2013-6-27,80.9,70.6,61.9,72.0,66.4,61.0,96,87,68,29.78,29.52,6,1,0,0.51
2013-6-28,81.1,73.9,67.5,69.0,67.7,66.0,95,81,65,29.51,29.41,10,2,0,0.57
2013-7-1,73.3,72.5,71.8,71.0,70.2,69.0,93,92,90,29.98,29.93,6,2,0,0.58
2013-7-26,75.9,74.2,71.6,63.0,61.7,61.0,72,65,61,30.01,29.98,7,2,0,0.00
2013-8-9,75.7,71.5,70.0,74.0,70.2,68.0,96,95,92,29.85,29.76,4,0,0,3.18
2013-9-3,71.9,69.4,64.1,65.0,63.0,59.0,84,80,76,29.82,29.75,2,1,0,0.12
2013-9-30,46.8,46.0,44.8,45.0,44.1,43.0,94,93,92,30.09,30.06,0,0,0,0.00
2014-1-2,15.4,7.1,-1.1,13.0,1.2,-99.9,89,83,83,29.87,29.11,10,-20,0,0.00